User: anonymous   Login
Location: Unspecified
(51.0950°N, 12.9690°E)
Time: 08:30:48
(UTC+00:00)
Language:

deb GEOSAT 1 - Orbit

View from above orbital plane
View from above orbital plane
View from above satellite
View from above satellite

Ground track
Ground track

The orbit data is extracted from the following two-line orbital elements,

1 15615U 85021E   24205.85359454  .00002851  00000-0  77221-3 0  9998
2 15615 107.8125 262.1013 0041777 139.8039 276.5747 14.49400189 67560
Epoch (UTC): 23 July 2024 20:29:10
Eccentricity: 0.0041777
inclination: 107.8125°
perigee height: 698 km
apogee height: 757 km
right ascension of ascending node: 262.1013°
argument of perigee: 139.8039°
revolutions per day: 14.49400189
mean anomaly at epoch: 276.5747°
orbit number at epoch: 6756

The dashed part of the orbit path shows where the satellite is in the earth's shadow,  

DLR